Rotterdam, Netherlands

7:09 PM CET on February 09, 2016 (GMT +0100)
Rotterdam

Weather History for EHRD - March, 2013

Change the Weather History Date:

Sunday, March 10, 2013

  Actual Average Record
Temperature  
Mean Temperature 32 °F -  
Max Temperature 34 °F 50 °F 63 °F (2014)
Min Temperature 30 °F 37 °F 30 °F (2013)
Degree Days  
Heating Degree Days 33    
Moisture  
Dew Point 29 °F    
Average Humidity 83    
Maximum Humidity 100    
Minimum Humidity 64    
Precipitation  
Precipitation 0.00 in - - ()
Sea Level Pressure  
Sea Level Pressure 29.63 in    
Wind  
Wind Speed 9 mph ()    
Max Wind Speed 18 mph    
Max Gust Speed -    
Visibility 5.5 miles    
Events Rain , Snow    
Averages and records for this station are not official NWS values.
T = Trace of Precipitation, MM = Missing Value Source: Averaged Metar Reports

Daily Weather History Graph

Daily Weather History Graph

Search for Another Location

Airport or City:

Trip Planner

Search our weather history database for the weather conditions in past years. The results will help you decide how hot, cold, wet, or windy it might be!

Date:

Astronomy

Mar. 10, 2013 Rise Set
Actual Time 7:07 AM CET 6:38 PM CET
Civil Twilight 6:34 AM CET 7:11 PM CET
Nautical Twilight 5:55 AM CET 7:50 PM CET
Astronomical Twilight 5:15 AM CET 8:31 PM CET
Moon 6:05 AM CET (3/10) 5:25 PM CET (3/10)
Length of Visible Light 12h 37m
Length of Day
11h 30m
Waning Crescent, 2% of the Moon is Illuminated
Mar 10
Waning Crescent
Mar 11
New
Mar 19
First Quarter
Mar 27
Full
Apr 3
Last Quarter

Hourly Weather History & Observations

Time (CET) Temp. Windchill Dew Point Humidity Pressure Visibility Wind Dir Wind Speed Gust Speed Precip Events Conditions
12:25 AM 35.6 °F 30.7 °F 35.6 °F 100% 29.53 in 6.2 mi NNW 5.8 mph - N/A Rain Light Rain Showers
12:55 AM 35.6 °F 30.7 °F 33.8 °F 93% 29.53 in 4.3 mi North 5.8 mph - N/A Rain Light Rain
1:00 AM 34 °F - 33 °F 97% 29.55 in 3 mi NNW 6.7 mph - - Rain Rain
1:25 AM 33.8 °F 29.6 °F 32.0 °F 93% 29.53 in 1.8 mi North 4.6 mph - N/A Rain Rain
1:55 AM 33.8 °F 29.6 °F 32.0 °F 93% 29.53 in 1.4 mi NNW 4.6 mph - N/A Rain , Snow Light Snow
2:25 AM 32.0 °F 26.4 °F 32.0 °F 100% 29.56 in 1.5 mi NNW 5.8 mph - N/A Snow Light Snow
2:55 AM 32.0 °F 26.4 °F 32.0 °F 100% 29.56 in 1.6 mi NNW 5.8 mph - N/A Snow Light Snow
3:25 AM 33.8 °F 28.6 °F 32.0 °F 93% 29.53 in - North 5.8 mph - N/A Snow Light Snow
3:55 AM 33.8 °F 27.7 °F 32.0 °F 93% 29.53 in - North 6.9 mph - N/A Snow Light Snow
4:00 AM 33 °F - 32 °F 96% 29.56 in 2 mi North 6.7 mph - - Snow Light Snow Showers
4:25 AM 33.8 °F 27.7 °F 32.0 °F 93% 29.53 in 1.6 mi North 6.9 mph - N/A Snow Light Snow
4:55 AM 33.8 °F 27.0 °F 32.0 °F 93% 29.53 in 1.8 mi North 8.1 mph - N/A Snow Light Snow
5:25 AM 33.8 °F 25.8 °F 32.0 °F 93% 29.56 in 3.1 mi North 10.4 mph - N/A Snow Light Snow Grains
5:55 AM 33.8 °F 26.4 °F 32.0 °F 93% 29.56 in 3.7 mi North 9.2 mph - N/A   Mostly Cloudy
6:25 AM 33.8 °F 26.4 °F 32.0 °F 93% 29.56 in 5.0 mi North 9.2 mph - N/A   Overcast
6:55 AM 33.8 °F 26.4 °F 32.0 °F 93% 29.56 in 5.6 mi North 9.2 mph - N/A   Overcast
7:25 AM 33.8 °F 26.4 °F 32.0 °F 93% 29.56 in - North 9.2 mph - N/A Snow Light Snow
7:55 AM 33.8 °F 26.4 °F 32.0 °F 93% 29.56 in 6.2 mi NNE 9.2 mph - N/A   Mostly Cloudy
8:25 AM 33.8 °F 25.3 °F 30.2 °F 87% 29.59 in 6.2 mi NNE 11.5 mph - N/A   Overcast
8:55 AM 33.8 °F 25.8 °F 30.2 °F 87% 29.59 in 6.2 mi NNE 10.4 mph - N/A   Overcast
9:25 AM 33.8 °F 23.9 °F 30.2 °F 87% 29.59 in 6.2 mi NNE 15.0 mph - N/A   Overcast
9:55 AM 33.8 °F 24.3 °F 30.2 °F 87% 29.59 in 6.2 mi NNE 13.8 mph - N/A   Overcast
10:25 AM 33.8 °F 22.8 °F 28.4 °F 81% 29.59 in 6.2 mi NE 18.4 mph - N/A   Overcast
10:55 AM 33.8 °F 23.2 °F 28.4 °F 81% 29.62 in 6.2 mi NE 17.3 mph - N/A   Overcast
11:25 AM 33.8 °F 24.8 °F 28.4 °F 81% 29.62 in 6.2 mi NNE 12.7 mph - N/A   Overcast
11:55 AM 33.8 °F 23.9 °F 28.4 °F 81% 29.62 in 6.2 mi NNE 15.0 mph - N/A   Overcast
12:25 PM 33.8 °F 24.3 °F 28.4 °F 81% 29.65 in 6.2 mi NE 13.8 mph - N/A   Overcast
12:55 PM 33.8 °F 24.3 °F 28.4 °F 81% 29.65 in 6.2 mi NNE 13.8 mph - N/A   Overcast
1:00 PM 34 °F - 28 °F 69% 29.65 in 9 mi NNE 13.4 mph - -   Partly Cloudy
1:25 PM 33.8 °F 24.8 °F 28.4 °F 81% 29.65 in 6.2 mi NNE 12.7 mph - N/A   Overcast
1:55 PM 33.8 °F 23.5 °F 28.4 °F 81% 29.65 in 6.2 mi NE 16.1 mph - N/A   Overcast
2:25 PM 33.8 °F 23.5 °F 26.6 °F 75% 29.65 in 6.2 mi NE 16.1 mph - N/A   Overcast
2:55 PM 33.8 °F 24.3 °F 28.4 °F 81% 29.65 in 6.2 mi NNE 13.8 mph - N/A   Overcast
3:25 PM 33.8 °F 23.5 °F 26.6 °F 75% 29.65 in 6.2 mi NE 16.1 mph - N/A   Overcast
3:55 PM 33.8 °F 24.3 °F 28.4 °F 81% 29.65 in 6.2 mi NE 13.8 mph - N/A   Overcast
4:00 PM 33 °F - 27 °F 70% 29.67 in 9 mi NE 15.7 mph - -   Overcast
4:25 PM 33.8 °F 23.5 °F 26.6 °F 75% 29.65 in 6.2 mi NE 16.1 mph - N/A   Overcast
4:55 PM 33.8 °F 23.9 °F 26.6 °F 75% 29.65 in 6.2 mi NE 15.0 mph - N/A   Overcast
5:25 PM 33.8 °F 24.8 °F 26.6 °F 75% 29.68 in 6.2 mi NE 12.7 mph - N/A   Overcast
5:55 PM 33.8 °F 24.8 °F 26.6 °F 75% 29.68 in 6.2 mi NE 12.7 mph - N/A   Overcast
6:25 PM 32.0 °F 21.6 °F 26.6 °F 80% 29.68 in 6.2 mi ENE 15.0 mph - N/A   Overcast
6:55 PM 32.0 °F 22.1 °F 26.6 °F 80% 29.68 in 6.2 mi NE 13.8 mph - N/A   Overcast
7:00 PM 33 °F - 25 °F 64% 29.72 in 12 mi NE 13.4 mph - -   Partly Cloudy
7:25 PM 32.0 °F 22.5 °F 24.8 °F 75% 29.71 in 6.2 mi NE 12.7 mph - N/A   Overcast
7:55 PM 32.0 °F 22.5 °F 26.6 °F 80% 29.71 in 6.2 mi NE 12.7 mph - N/A   Overcast
8:25 PM 32.0 °F 21.6 °F 24.8 °F 75% 29.71 in 6.2 mi ENE 15.0 mph - N/A   Overcast
8:55 PM 32.0 °F 21.2 °F 24.8 °F 75% 29.71 in 6.2 mi NE 16.1 mph - N/A   Overcast
9:25 PM 32.0 °F 21.2 °F 24.8 °F 75% 29.71 in 6.2 mi NE 16.1 mph - N/A   Overcast
9:55 PM 32.0 °F 21.6 °F 24.8 °F 75% 29.71 in 6.2 mi NE 15.0 mph - N/A   Overcast
10:00 PM 31 °F - 24 °F 64% 29.73 in 25 mi ENE 15.7 mph - -   Overcast
10:25 PM 32.0 °F 22.5 °F 24.8 °F 75% 29.71 in 6.2 mi NE 12.7 mph - N/A   Overcast
10:55 PM 30.2 °F 18.1 °F 23.0 °F 75% 29.74 in 6.2 mi NE 18.4 mph - N/A   Overcast
11:25 PM 30.2 °F 18.5 °F 21.2 °F 69% 29.74 in 6.2 mi ENE 17.3 mph - N/A   Overcast
11:55 PM 30.2 °F 19.8 °F 21.2 °F 69% 29.74 in 6.2 mi ENE 13.8 mph - N/A   Overcast